Location: Bo�� Voda
(50.3940°N, 14.9497°E)
Time: 00:20:07
(UTC+00:00)

Daily predictions for brighter satellites

Satellite Brightness Start Highest point End
(mag) Time Altitude Azimuth Time Altitude Azimuth Time Altitude Azimuth
STARLINK-1212 2.7 00:00:04 10° WNW 00:03:11 89° SSW 00:06:17 10° ESE
STARLINK-1105 2.7 00:00:33 10° WNW 00:03:39 89° SSW 00:06:45 10° ESE
STARLINK-1209 2.7 00:00:47 10° WNW 00:03:55 71° SSW 00:06:55 11° ESE
STARLINK-1247 2.7 00:01:26 10° WNW 00:04:35 88° SSW 00:07:42 10° ESE
STARLINK-1208 3.9 00:00:53 10° WNW 00:05:02 69° NNE 00:09:10 10° E
STARLINK-1227 2.7 00:01:54 10° WNW 00:05:02 87° S 00:08:07 10° ESE
ATLAS CENTAUR R/B 1.8 00:02:55 10° NW 00:05:09 56° NNE 00:09:26 10° ESE
STARLINK-1226 2.7 00:02:46 10° WNW 00:05:53 87° SSW 00:09:01 10° ESE
STARLINK-1215 2.7 00:03:42 10° WNW 00:06:49 86° SSW 00:09:57 10° ESE
STARLINK-1225 4.2 00:03:00 10° W 00:07:07 60° N 00:11:14 10° ENE
Nadezhda 2 Rocket 4.4 00:04:33 27° SSW 00:08:08 78° WNW 00:14:17 10° N
STARLINK-1217 2.7 00:05:28 10° WNW 00:08:35 84° SSW 00:11:43 10° ESE
STARLINK-1229 2.7 00:06:23 10° WNW 00:09:31 83° SSW 00:12:39 10° ESE
STARLINK-1271 3.9 00:05:53 10° WNW 00:10:02 71° NNE 00:14:11 10° E
Cosmos 1726 4.2 00:08:00 10° NW 00:10:12 15° W 00:10:54 15° W
GEOS 3 Rocket 3.9 00:07:39 26° S 00:10:17 47° SW 00:15:23 10° NW
STARLINK-1270 2.7 00:07:15 10° WNW 00:10:23 82° SSW 00:13:31 10° ESE
Lacrosse 4 Rocket 4.5 00:08:35 10° NNW 00:11:41 18° NNE 00:14:44 10° ENE
Cosmos 2058 Rocket 3.1 00:07:19 10° NNW 00:11:43 68° W 00:13:46 31° S
STARLINK-1230 4.2 00:07:59 10° W 00:12:06 59° N 00:16:12 10° ENE
STARLINK-1189 2.7 00:09:06 10° WNW 00:12:14 80° SSW 00:15:20 10° ESE
Meteor 1-29 3.2 00:09:08 10° N 00:12:29 56° WNW 00:13:32 37° SW
STARLINK-1188 2.7 00:09:58 10° WNW 00:13:06 80° SSW 00:16:13 10° ESE
STARLINK-1235 2.7 00:10:40 10° WNW 00:13:46 67° SSW 00:16:50 10° ESE
Cosmos 2228 3.9 00:10:15 10° NNW 00:14:08 34° W 00:15:32 27° SW
STARLINK-1187 2.7 00:11:05 10° WNW 00:14:11 72° SSW 00:17:17 10° ESE
STARLINK-1154 3.8 00:10:53 10° WNW 00:15:01 73° NNE 00:19:11 10° E
COSMOS 2455 2.8 00:11:40 25° SSW 00:15:18 85° SE 00:21:23 10° NE
STARLINK-1191 2.7 00:12:27 10° WNW 00:15:33 77° SSW 00:18:40 10° ESE
SJ 16-02 3.0 00:11:43 10° N 00:15:45 33° ENE 00:19:46 10° ESE
STARLINK-1221 2.7 00:13:19 10° WNW 00:16:26 76° SSW 00:19:32 10° ESE
STARLINK-1243 4.2 00:12:59 10° W 00:17:05 59° N 00:21:12 10° E
STARLINK-1222 2.7 00:14:13 10° WNW 00:17:19 75° SSW 00:20:25 10° ESE
STARLINK-1214 2.7 00:15:08 10° WNW 00:18:14 74° SSW 00:21:19 10° ESE
Starlink 7 placeholder 4.2 00:19:27 18° E 00:19:27 18° E 00:20:09 10° E
STARLINK-1197 3.8 00:15:51 10° WNW 00:20:01 75° NNE 00:24:10 10° ESE
SL-14 R/B 3.1 00:18:39 34° SSW 00:20:15 84° W 00:24:09 10° N
IRAS Rocket 4.4 00:17:53 25° S 00:21:04 56° WSW 00:26:34 10° NNW
STARLINK-1236 4.2 00:17:59 10° W 00:22:05 59° N 00:26:12 10° E
Cosmos 1300 2.7 00:19:42 10° NNW 00:23:31 65° W 00:25:04 33° SSW
Okean 1-7 Rocket 3.7 00:22:03 29° SSW 00:24:14 68° WNW 00:28:45 10° N
Cosmos 1174 3.3 00:23:33 37° SW 00:24:44 83° NW 00:28:29 10° NE
STARLINK-1198 3.7 00:20:49 10° WNW 00:24:58 78° NNE 00:29:08 10° ESE
Cosmos 921 Rocket 3.2 00:23:34 28° S 00:25:40 62° ESE 00:29:56 10° NNE
BREEZE M DEB (TANK) 1.9 00:26:49 53° SSW 00:26:52 53° SSW 00:30:10 10° ESE
COSMOS 2487 4.1 00:24:39 10° NW 00:27:13 19° W 00:27:18 19° WSW
STARLINK-1199 3.7 00:25:50 10° WNW 00:30:00 80° NNE 00:34:09 10° ESE
Meteor 2-16 Rocket 4.4 00:27:43 23° S 00:31:48 88° W 00:37:59 10° N
SAR-Lupe-3 4.5 00:28:15 10° NNE 00:31:50 86° WNW 00:33:22 32° SSW
STARLINK-1269 4.2 00:27:57 10° W 00:32:03 59° N 00:36:10 10° E
Cosmos 1626 Rocket 3.7 00:29:36 24° S 00:32:05 66° E 00:36:24 10° NNE
Cosmos 2219 3.4 00:26:56 10° NNW 00:32:40 76° ENE 00:38:18 10° SE
STARLINK-1210 3.6 00:30:48 10° WNW 00:34:58 83° NNE 00:39:07 10° ESE
Cosmos 1626 2.5 00:34:31 30° SW 00:36:04 52° WNW 00:39:44 10° N
STARLINK-1200 4.2 00:32:58 10° WNW 00:37:05 59° N 00:41:11 10° E
STARLINK-60 3.0 00:36:27 37° SW 00:37:27 60° SSE 00:40:37 10° ENE
STARLINK-1219 3.6 00:35:46 10° WNW 00:39:56 87° NNE 00:44:06 10° ESE
Nadezhda 1 Rocket 4.0 00:34:49 10° NNW 00:40:58 76° W 00:45:52 17° S
STARLINK-1192 4.2 00:37:58 10° WNW 00:42:04 59° N 00:46:11 10° E
FALCON 9 R/B 4.0 00:38:25 20° SSW 00:43:03 34° SSE 01:01:49 10° ESE
STARLINK-1211 3.6 00:40:45 10° WNW 00:44:55 90° E 00:49:04 10° ESE
STARLINK-1244 4.2 00:42:56 10° WNW 00:47:03 60° N 00:51:10 10° E
MOZ.5/SAFIR/RUBIN 5/SL-8 3.9 00:44:16 22° S 00:47:07 57° W 00:51:42 10° NNW
UNK 3.7 00:44:01 19° S 00:47:21 74° WSW 00:51:59 10° NNW
Cosmos 2297 Rocket 2.3 00:42:38 10° NNW 00:48:20 81° ENE 00:53:59 10° SSE
Cosmos 220 Rocket 4.1 00:46:16 24° SSW 00:48:53 76° ESE 00:53:20 10° NNE
AQUA 4.3 00:44:57 10° NNE 00:49:38 54° E 00:53:18 16° S
STARLINK-1245 3.5 00:45:44 10° WNW 00:49:55 87° SSW 00:54:04 10° ESE
Cosmos 1812 Rocket 3.6 00:46:27 10° N 00:50:58 88° WSW 00:54:30 16° S
CZ-4B R/B 3.9 00:46:05 10° NNE 00:51:10 60° ESE 00:55:16 16° S
STARLINK-1138 4.2 00:47:56 10° WNW 00:52:03 61° N 00:56:10 10° E
SL-4 R/B 2.4 00:49:13 19° SW 00:52:35 67° SSE 00:57:15 10° ENE
Cosmos 1437 3.0 00:52:48 30° SW 00:53:55 48° WNW 00:56:52 10° N
STARLINK-1203 4.2 00:50:32 10° WNW 00:54:42 62° N 00:58:53 10° E
STARLINK-1233 3.5 00:50:43 10° WNW 00:54:53 83° SSW 00:59:01 10° ESE
Cosmos 990 Rocket 4.3 00:50:50 10° NNW 00:56:06 69° ENE 01:01:21 10° SSE
STARLINK-1143 4.1 00:52:55 10° WNW 00:57:03 62° N 01:01:10 10° E
STARLINK-1204 3.5 00:55:42 10° WNW 00:59:51 79° SSW 01:04:00 10° ESE
Timation 2 Rocket 4.4 00:54:05 10° NW 00:59:59 41° WSW 01:04:30 16° S
ATLAS CENTAUR R/B 1.9 00:56:56 18° WSW 01:00:04 55° NW 01:04:05 10° NE
SL-16 R/B 2.6 00:56:01 15° S 01:01:10 60° WSW 01:07:18 10° NNW
STARLINK-1241 4.1 00:57:54 10° WNW 01:02:02 62° N 01:06:09 10° E
Alouette 2 Rocket 4.3 00:55:00 10° NNW 01:02:08 80° ENE 01:06:43 10° SSE
NOSS 3-4 (A) 4.1 00:57:31 11° WSW 01:03:17 52° NW 01:09:42 10° NE
BREEZE-M R/B 3.3 01:01:07 21° SW 01:03:21 37° SSE 01:06:06 10° E
NOSS 3-4 (C) 4.1 00:57:37 11° WSW 01:03:22 53° NW 01:09:48 10° NE
FALCON 9 DEB 3.9 01:02:08 24° SSW 01:03:35 37° SSE 01:06:48 10° ENE
STARLINK-1238 3.5 01:00:40 10° WNW 01:04:48 76° SSW 01:08:57 10° ESE
Cosmos 1602 Rocket 3.5 01:01:58 20° SSW 01:04:52 76° W 01:09:13 10° N
Cosmos 1825 Rocket 4.4 01:01:14 11° SSE 01:05:07 45° E 01:09:16 10° NNE
Cosmos 1455 2.2 01:02:12 10° N 01:05:58 80° E 01:09:23 12° SSE
STARLINK-29 3.1 01:04:34 26° SW 01:06:06 54° SSE 01:09:14 10° ENE
STARLINK-1239 4.1 01:02:53 10° WNW 01:07:01 64° N 01:11:09 10° E
ATLAS 3B R/B 3.4 01:01:31 10° NW 01:07:24 32° WSW 01:12:42 13° S
BREEZE-M DEB (TANK) 3.5 01:09:29 17° SSE 01:09:44 17° SE 01:11:24 10° E
STARLINK-1201 3.5 01:05:40 10° WNW 01:09:48 72° SSW 01:13:56 10° ESE
IRS-1D 4.0 01:05:04 10° NNE 01:10:23 61° ESE 01:15:16 12° S
CENTAUR R/B 4.4 01:05:09 10° WNW 01:10:47 20° WSW 01:14:47 15° SW
STARLINK-1240 4.1 01:07:53 10° WNW 01:12:01 65° N 01:16:09 10° E
GP-B 3.2 01:07:33 10° N 01:12:02 77° E 01:16:11 12° S
Meteor 2-1 Rocket 4.3 01:07:49 10° NNW 01:13:14 58° W 01:18:03 13° S
BREEZE-M DEB (TANK) 1.0 01:12:38 19° WSW 01:14:14 65° S 01:16:38 10° E
STARLINK-1206 3.5 01:10:39 10° WNW 01:14:46 68° SSW 01:18:53 10° SE
Cosmos-2242 3.1 01:11:17 10° N 01:15:34 75° ENE 01:19:48 10° SSE
STARLINK-1216 4.0 01:12:52 10° WNW 01:17:01 66° N 01:21:09 10° E
Cosmos 1745 Rocket 4.3 01:12:45 17° SSW 01:17:29 54° WNW 01:23:30 10° N
Cosmos 1400 Rocket 4.4 01:13:56 10° N 01:17:48 37° ENE 01:21:40 10° SE
STARLINK-1205 3.6 01:15:38 10° WNW 01:19:44 64° SSW 01:23:50 10° SE
STARLINK-1237 4.0 01:17:52 10° WNW 01:22:01 68° NNE 01:26:09 10° E
Cosmos 2181 Rocket 4.1 01:15:41 10° N 01:22:07 89° ENE 01:28:35 10° S
RESURS DK-1 3.1 01:19:17 16° WSW 01:22:23 45° NW 01:26:25 10° NNE
SL-08 R/B 3.7 01:17:55 10° SSE 01:22:35 67° ENE 01:27:12 10° N
Cosmos 2227 Rocket 2.2 01:18:15 10° NNW 01:23:54 68° WSW 01:29:30 10° SSE
STARLINK-1218 3.6 01:20:36 10° WNW 01:24:42 60° SSW 01:28:47 10° SE
CZ-2D R/B 2.3 01:20:44 10° N 01:25:55 58° WNW 01:30:15 14° SW
STARLINK-1202 3.9 01:22:51 10° WNW 01:27:01 70° NNE 01:31:09 10° E
Cosmos 1763 Rocket 3.8 01:23:45 12° S 01:28:26 59° ESE 01:33:28 10° NNE
ADEOS II 2.4 01:23:26 10° NNE 01:28:41 67° ESE 01:33:55 10° S
Cosmos 1697 Rocket 3.6 01:23:25 10° S 01:28:44 43° ESE 01:34:04 10° NE
STARLINK-1254 3.6 01:25:36 10° WNW 01:29:40 57° SSW 01:33:44 10° SE
Cosmos 1703 3.4 01:26:47 12° S 01:30:26 75° E 01:34:23 10° NNE
ATLAS 2AS CENTAUR R/B 3.9 01:24:55 10° WSW 01:32:36 47° NNW 01:40:07 10° NE
STARLINK-1231 3.7 01:30:36 10° WNW 01:34:39 53° SSW 01:38:41 10° SE
Resurs 1-4 Rocket 2.6 01:30:33 10° N 01:35:37 48° WNW 01:40:11 13° SW
STARLINK-1246 3.9 01:32:49 10° WNW 01:36:58 74° NNE 01:41:07 10° E
STARLINK-1234 4.5 01:35:11 10° W 01:41:18 - SSE 01:37:02 16° SW
STARLINK-1212 4.2 01:36:19 10° W 01:38:41 20° SW 01:41:03 10° S
STARLINK-1105 4.2 01:36:47 10° W 01:39:08 20° SW 01:41:28 10° S
STARLINK-1232 3.8 01:35:36 10° WNW 01:39:37 50° SSW 01:43:38 10° SE
STARLINK-1247 4.2 01:37:42 10° W 01:40:04 20° SW 01:42:25 10° S
STARLINK-1227 4.2 01:38:11 10° W 01:40:30 19° SW 01:42:48 10° S
ARIANE 5 R/B 3.1 01:35:48 10° NNE 01:40:48 54° E 01:45:43 10° S
USA 81 4.5 01:36:19 13° SSW 01:40:50 49° WNW 01:45:59 10° N
STARLINK-1226 4.2 01:39:02 10° W 01:41:22 19° SW 01:43:41 10° S
STARLINK-1224 3.8 01:37:48 10° WNW 01:41:58 77° NNE 01:46:07 10° ESE
STARLINK-1215 4.3 01:40:00 10° W 01:42:18 19° SW 01:44:37 10° S
STARLINK-52 2.9 01:39:41 13° WSW 01:42:31 83° SSE 01:45:44 10° ENE
NPP 4.1 01:37:51 10° N 01:43:04 50° WNW 01:47:57 11° SW
Cosmos 1758 Rocket 3.6 01:39:23 12° SSW 01:43:16 64° WNW 01:47:38 10° N
STARLINK-1217 4.3 01:41:47 10° W 01:44:04 18° SW 01:46:19 10° S
STARLINK-1208 3.8 01:40:34 10° WNW 01:44:34 47° SSW 01:48:32 10° SE
STARLINK-1229 4.3 01:42:44 10° W 01:44:58 18° SW 01:47:13 10° S
H-2A R/B 2.7 01:41:03 10° SSE 01:45:16 59° ENE 01:49:40 10° N
STARLINK-1270 4.3 01:43:36 10° W 01:45:50 18° SW 01:48:03 10° S
STARLINK-1225 3.8 01:42:47 10° WNW 01:46:58 79° NNE 01:51:07 10° ESE
STARLINK-1189 4.4 01:45:29 10° W 01:47:40 17° SW 01:49:49 10° S
STARLINK-1188 4.4 01:46:23 10° W 01:48:32 17° SW 01:50:41 10° S
Cosmos 1898 Rocket 3.8 01:43:45 10° NNW 01:48:54 50° WSW 01:54:00 10° S
STARLINK-1271 3.9 01:45:35 10° WNW 01:49:32 44° SSW 01:53:28 10° SE
STARLINK-1191 4.4 01:48:56 10° W 01:50:58 16° SW 01:53:01 10° S
Lacrosse 4 Rocket 1.6 01:46:42 10° NNW 01:51:06 82° NE 01:55:21 10° SE
STARLINK-1221 4.5 01:49:48 10° W 01:51:50 16° SW 01:53:52 10° S
STARLINK-1230 3.7 01:47:46 10° WNW 01:51:56 82° NNE 01:56:05 10° ESE
Starlink 7 placeholder 3.0 01:50:08 10° W 01:52:01 38° N 01:53:56 10° ENE
STARLINK-1222 4.5 01:50:43 10° W 01:52:43 16° SW 01:54:43 10° S
STARLINK-1214 4.5 01:51:40 10° W 01:53:37 16° SW 01:55:35 10° S
Cosmos 1656 3.8 01:48:20 11° SSW 01:53:48 78° WNW 01:59:27 10° NNE
IDEFIX/ARIANE 42P 3.8 01:49:10 10° NNE 01:54:07 39° E 01:59:01 10° SSE
SJ 16-02 2.1 01:50:20 10° NW 01:54:19 33° WSW 01:58:17 10° SSW
Cosmos 2285 Rocket 4.0 01:48:04 10° NNW 01:54:26 70° WSW 02:00:43 10° S
STARLINK-1154 4.0 01:50:35 10° WNW 01:54:29 41° SW 01:58:24 10° SE
CZ-4C R/B 2.7 01:50:53 10° SSW 01:55:45 52° ESE 02:01:35 10° NE
Cosmos 2084 3.9 01:52:19 10° WSW 01:56:43 59° NW 02:01:10 10° NE
STARLINK-1243 3.7 01:52:45 10° WNW 01:56:55 85° NNE 02:01:04 10° ESE
Cosmos 468 Rocket 4.0 01:52:22 11° SSW 01:57:24 72° WNW 02:02:33 10° NNE
Cosmos 1570 Rocket 4.3 01:53:40 10° SSW 01:58:57 69° ESE 02:04:15 10° NNE
Cosmos 1937 Rocket 3.7 01:54:05 10° NNW 01:59:12 55° WSW 02:04:19 10° S
STARLINK-1197 4.1 01:55:35 10° WNW 01:59:27 38° SW 02:03:18 10° SSE
Cosmos 1953 Rocket 3.6 01:55:06 10° SSW 01:59:33 77° W 02:04:02 10° N
Meteor 2-10 Rocket 4.4 01:56:09 10° NNW 02:00:51 32° W 02:05:24 10° SSW
Uosat 12 SS-18 rocket 4.1 01:57:09 10° NW 02:01:28 86° NE 02:05:56 10° SE
Cosmos 2208 Rocket 4.5 01:56:43 10° S 02:01:51 61° ESE 02:07:06 10° NNE
STARLINK-1236 3.6 01:57:44 10° WNW 02:01:54 89° NNE 02:06:03 10° ESE
COSMOS 2455 4.3 01:56:44 10° W 02:01:58 30° NNW 02:07:12 10° NNE
Cosmos 2369 3.9 01:56:27 10° SSW 02:02:03 71° ESE 02:07:42 10° NNE
NOSS 7 (H) 4.4 01:59:33 10° SSW 02:02:39 61° SE 02:05:35 10° NE
STARLINK-1198 4.2 02:00:33 10° WNW 02:04:22 36° SW 02:08:10 10° SSE
Cosmos 1842 Rocket 4.0 02:00:41 10° N 02:05:11 69° ENE 02:09:38 10° SSE
STARLINK-1199 4.3 02:05:36 10° WNW 02:09:21 34° SW 02:13:06 10° SSE
Iridium 2 3.7 02:06:35 10° N 02:10:22 88° E 02:14:07 10° S
STARLINK-1269 3.6 02:07:40 10° WNW 02:11:51 84° SSW 02:16:00 10° ESE
USA 129 3.9 02:10:47 10° NE 02:12:30 21° E 02:13:53 10° SSE
STARLINK-60 3.6 02:10:29 10° W 02:13:38 54° N 02:16:49 10° ENE
STARLINK-1210 4.3 02:10:36 10° W 02:14:17 31° SW 02:17:58 10° SSE
Cosmos 2219 4.5 02:12:06 10° NW 02:16:12 21° W 02:20:15 10° SSW
STARLINK-1200 3.6 02:12:40 10° WNW 02:16:51 81° SSW 02:20:59 10° ESE
Cosmos 1814 Rocket 4.3 02:12:29 10° SSW 02:17:49 74° ESE 02:23:09 10° NNE
STARLINK-1320 3.0 02:15:13 10° WSW 02:18:18 65° SSE 02:21:25 10° ENE
Cosmos 1125 Rocket 4.4 02:13:28 10° NNW 02:18:36 55° ENE 02:23:42 10° SE
STARLINK-1322 3.0 02:15:34 10° WSW 02:18:39 65° SSE 02:21:45 10° ENE
STARLINK-1324 3.0 02:15:54 10° WSW 02:19:00 65° SSE 02:22:06 10° ENE
STARLINK-1219 4.4 02:15:37 10° W 02:19:14 29° SW 02:22:50 10° SSE
STARLINK-1294 3.0 02:16:11 10° WSW 02:19:17 66° SSE 02:22:24 10° ENE
Nadezhda 3 Rocket 4.2 02:13:18 10° N 02:19:36 85° E 02:25:55 10° S
STARLINK-1261 3.0 02:16:34 10° WSW 02:19:39 66° SSE 02:22:46 10° ENE
STARLINK-1325 3.0 02:16:55 10° WSW 02:20:01 66° SSE 02:23:08 10° ENE
Cosmos 1980 Rocket 2.7 02:15:28 10° S 02:20:57 59° ESE 02:26:30 10° NE
